Date,TemperatureHighF,TemperatureAvgF,TemperatureLowF,DewpointHighF,DewpointAvgF,DewpointLowF,HumidityHigh,HumidityAvg,HumidityLow,PressureMaxIn,PressureMinIn,WindSpeedMaxMPH,WindSpeedAvgMPH,GustSpeedMaxMPH,PrecipitationSumIn
2013-1-1,10.0,7.1,5.0,-99.9,-99.9,-99.9,0,0,100,0.00,40.00,20,13,32,0.00
2013-1-2,14.0,10.3,6.0,-99.9,-99.9,-99.9,0,0,100,0.00,40.00,15,11,23,0.00
2013-1-3,30.0,20.4,7.0,-99.9,-99.9,-99.9,0,0,100,0.00,40.00,15,9,19,0.00
2013-1-4,30.0,26.0,18.0,-99.9,-99.9,-99.9,0,0,100,0.00,40.00,12,8,16,0.00
2013-1-5,35.0,26.1,18.0,-99.9,-99.9,-99.9,0,0,100,0.00,40.00,17,8,31,0.00
2013-1-6,29.0,26.5,23.0,-99.9,-99.9,-99.9,0,0,100,0.00,40.00,16,8,35,0.00
2013-1-7,25.0,20.8,15.0,-99.9,-99.9,-99.9,0,0,100,0.00,40.00,19,9,28,0.00
2013-1-8,20.0,18.0,15.0,-99.9,-99.9,-99.9,0,0,100,0.00,40.00,11,4,20,0.00
2013-1-9,36.0,29.8,20.0,-99.9,-99.9,-99.9,0,0,100,0.00,40.00,15,10,37,0.00
2013-1-10,29.0,18.4,3.0,-99.9,-99.9,-99.9,0,0,100,0.00,40.00,22,16,58,0.00
2013-1-11,1.0,-3.0,-5.0,-99.9,-99.9,-99.9,0,0,100,0.00,40.00,17,12,33,0.00
2013-1-12,-4.0,-7.8,-13.0,-99.9,-99.9,-99.9,0,0,100,0.00,40.00,14,9,22,0.00
2013-1-13,-13.0,-13.5,-15.0,-99.9,-99.9,-99.9,0,0,100,0.00,40.00,6,4,9,0.00
2013-1-14,-1.0,-9.2,-14.0,-99.9,-99.9,-99.9,0,0,100,0.00,40.00,14,6,23,0.00
2013-1-15,16.0,10.3,-5.0,-99.9,-99.9,-99.9,0,0,100,0.00,40.00,16,13,31,0.00
2013-1-16,23.0,18.0,12.0,-99.9,-99.9,-99.9,0,0,100,0.00,40.00,19,15,34,0.00
2013-1-17,29.0,25.2,20.0,-99.9,-99.9,-99.9,0,0,100,0.00,40.00,15,10,25,0.00
2013-1-18,31.0,26.9,24.0,-99.9,-99.9,-99.9,0,0,100,0.00,40.00,11,6,17,0.00
2013-1-19,31.0,26.7,23.0,-99.9,-99.9,-99.9,0,0,100,0.00,40.00,9,7,21,0.00
2013-1-20,29.0,24.9,22.0,-99.9,-99.9,-99.9,0,0,100,0.00,40.00,12,7,21,0.00
2013-1-21,31.0,27.3,23.0,-99.9,-99.9,-99.9,0,0,100,0.00,40.00,12,10,19,0.00
2013-1-22,40.0,34.1,29.0,-99.9,-99.9,-99.9,0,0,100,0.00,40.00,17,13,23,0.00
2013-1-23,39.0,34.8,30.0,-99.9,-99.9,-99.9,0,0,100,0.00,40.00,17,12,30,0.00
2013-1-24,32.0,27.0,24.0,-99.9,-99.9,-99.9,0,0,100,0.00,40.00,13,8,24,0.00
2013-1-25,27.0,24.0,23.0,-99.9,-99.9,-99.9,0,0,100,0.00,40.00,7,3,12,0.00
2013-1-26,31.0,27.0,24.0,-99.9,-99.9,-99.9,0,0,100,0.00,40.00,13,6,22,0.00
2013-1-27,25.0,19.0,9.0,-99.9,-99.9,-99.9,0,0,100,0.00,40.00,16,9,34,0.00
2013-1-28,8.0,3.7,-1.0,-99.9,-99.9,-99.9,0,0,100,0.00,40.00,15,8,21,0.00
2013-1-29,9.0,5.0,1.0,-99.9,-99.9,-99.9,0,0,100,0.00,40.00,11,7,22,0.00
2013-1-30,17.0,11.6,7.0,-99.9,-99.9,-99.9,0,0,100,0.00,40.00,11,9,33,0.00
2013-1-31,17.0,16.5,15.0,-99.9,-99.9,-99.9,0,0,100,0.00,40.00,16,10,26,0.00
2013-2-1,21.0,17.6,14.0,-99.9,-99.9,-99.9,0,0,100,0.00,40.00,15,9,25,0.00
2013-2-2,31.0,21.7,13.0,-99.9,-99.9,-99.9,0,0,100,0.00,40.00,15,8,22,0.00
2013-2-3,28.0,24.8,20.0,-99.9,-99.9,-99.9,0,0,100,0.00,40.00,14,10,22,0.00
2013-2-4,25.0,21.0,18.0,-99.9,-99.9,-99.9,0,0,100,0.00,40.00,17,12,24,0.00
2013-2-5,35.0,28.4,23.0,-99.9,-99.9,-99.9,0,0,100,0.00,40.00,16,9,22,0.00
2013-2-6,28.0,20.4,14.0,-99.9,-99.9,-99.9,0,0,100,0.00,40.00,14,7,18,0.00
2013-2-7,29.0,22.2,15.0,-99.9,-99.9,-99.9,0,0,100,0.00,40.00,14,8,27,0.00
2013-2-8,20.0,16.1,12.0,-99.9,-99.9,-99.9,0,0,100,0.00,40.00,20,11,33,0.00
2013-2-9,13.0,9.1,6.0,-99.9,-99.9,-99.9,0,0,100,0.00,40.00,15,6,21,0.00
2013-2-10,22.0,9.6,3.0,-99.9,-99.9,-99.9,0,0,100,0.00,40.00,7,3,19,0.00
2013-2-11,9.0,3.3,-1.0,-99.9,-99.9,-99.9,0,0,100,0.00,40.00,11,4,20,0.00
2013-2-12,12.0,6.8,1.0,-99.9,-99.9,-99.9,0,0,100,0.00,40.00,10,7,21,0.00
2013-2-13,20.0,15.1,11.0,-99.9,-99.9,-99.9,0,0,100,0.00,40.00,13,8,28,0.00
2013-2-14,20.0,14.6,10.0,-99.9,-99.9,-99.9,0,0,100,0.00,40.00,14,8,23,0.00
2013-2-15,24.0,16.2,10.0,-99.9,-99.9,-99.9,0,0,100,0.00,40.00,9,6,19,0.00
2013-2-16,32.0,26.2,21.0,-99.9,-99.9,-99.9,0,0,100,0.00,40.00,14,12,23,0.00
2013-2-17,28.0,16.9,5.0,-99.9,-99.9,-99.9,0,0,100,0.00,40.00,15,12,36,0.00
2013-2-18,20.0,12.2,4.0,-99.9,-99.9,-99.9,0,0,100,0.00,40.00,10,6,19,0.00
2013-2-19,24.0,19.9,14.0,-99.9,-99.9,-99.9,0,0,100,0.00,40.00,14,9,31,0.00
2013-2-20,18.0,15.7,13.0,-99.9,-99.9,-99.9,0,0,100,0.00,40.00,15,8,24,0.00
2013-2-21,17.0,9.1,3.0,-99.9,-99.9,-99.9,0,0,100,0.00,40.00,14,9,20,0.00
2013-2-22,14.0,7.2,2.0,-99.9,-99.9,-99.9,0,0,100,0.00,40.00,20,10,29,0.00
2013-2-23,15.0,8.0,2.0,-99.9,-99.9,-99.9,0,0,100,0.00,40.00,17,11,36,0.00
2013-2-24,18.0,6.0,1.0,-99.9,-99.9,-99.9,0,0,100,0.00,40.00,13,7,25,0.00
2013-2-25,10.0,5.0,3.0,-99.9,-99.9,-99.9,0,0,100,0.00,40.00,15,10,21,0.00
2013-2-26,4.0,2.3,1.0,-99.9,-99.9,-99.9,0,0,100,0.00,40.00,6,6,17,0.00
2013-2-27,16.0,8.8,1.0,-99.9,-99.9,-99.9,0,0,100,0.00,40.00,9,6,14,0.00
2013-2-28,19.0,13.7,11.0,-99.9,-99.9,-99.9,0,0,100,0.00,40.00,13,9,22,0.00